カタログに戻る

NANOSAT C BR1

運用中科学PO
NORAD 40024·PAYLOAD·🇧🇷 Brazil

打ち上げ Jun 19, 2014 から Dombarovsky

Loading…

次のパス (今後24時間)

TLE

最新Source: Space-Track

元期: Sep 14, 2026, 01:18 UTC

1 40024U 14033Q   26257.05449523  .00014838  00000-0  45301-3 0  9995
2 40024  98.0653 297.4736 0002650 209.1009 151.0084 15.34026506667599

AllMySatでNANOSAT C BR1をリアルタイム追跡

Download on the App Store